Hourly Data Report for November 11, 2012

BAGOTVILLE A
QUEBEC

48°20'00.000" N
71°00'00.000" W
159.10 m
7060400
71727
YBG

Download Data

Hourly Data (November 2012)
Hourly Data Report for November 11, 2012
TIME
LST
Temp Definition
°C
Dew Point Definition
°C
Rel Hum Definition
%
Precip. Amount Definition
mm

Wind Dir Definition
10's deg

Wind Spd Definition
km/h
Visibility Definition
km
Stn Press Definition
kPa
Hmdx Definition


Wind Chill Definition


Weather Definition


00:00 -4.8 -8.0 78   24 7 24.1 101.17   -8 Mostly Cloudy
01:00 -5.5 -8.2 81   20 4 24.1 101.12   -7 Mostly Cloudy
02:00 -5.5 -8.2 81   19 7 24.1 101.11   -9 Mostly Cloudy
03:00 -5.0 -7.5 83   21 15 24.1 101.18   -11 Cloudy
04:00 -4.6 -7.7 79   21 4 24.1 101.23   -6 Mostly Cloudy
05:00 -4.4 -8.2 75     0 24.1 101.25     Cloudy
06:00 -4.9 -7.8 80   18 7 24.1 101.19   -8 Mostly Cloudy
07:00 -4.1 -7.8 75   12 6 40.2 101.11   -7 Cloudy
08:00 -3.7 -7.3 76   7 4 40.2 101.15   -5 Cloudy
09:00 -2.7 -6.6 74   7 6 40.2 101.22   -5 Snow
10:00 -2.9 -5.3 83   9 11 32.2 101.20   -7 Snow
11:00 -2.2 -3.9 88   10 17 9.7 101.12   -8 Snow
12:00 -1.4 -4.0 82   9 19 40.2 100.98   -7 Cloudy
13:00 -0.7 -3.5 81   10 17 40.2 100.83   -6 Freezing Rain
14:00 0.1 -3.9 74   10 20 40.2 100.69     Rain Showers
15:00 0.4 -3.2 77   9 22 40.2 100.72     Rain Showers
16:00 0.5 -4.0 72   10 28 40.2 100.65     Cloudy
17:00 0.5 -4.0 72   9 30 24.1 100.61     Cloudy
18:00 0.6 -3.8 72   9 28 24.1 100.66     Cloudy
19:00 0.5 -4.0 72   10 30 24.1 100.70     Cloudy
20:00 0.0 -2.6 83   10 30 24.1 100.70   -6 Cloudy
21:00 0.0 -1.0 93   10 32 24.1 100.68   -7 Mostly Cloudy
22:00 0.1 -1.7 88   10 26 24.1 100.59     Cloudy
23:00 0.1 -2.2 84   10 28 24.1 100.55     Mostly Cloudy

Notes on Data Quality.

Legend

  • E = Estimated
  • M = Missing
  • NA = Not Available*
  • [empty] = Indicates an unobserved value
Date modified: